Time,TemperatureF,DewpointF,PressureIn,WindDirection,WindDirectionDegrees,WindSpeedMPH,WindSpeedGustMPH,Humidity,HourlyPrecipIn,Conditions,Clouds,dailyrainin,SoftwareType,DateUTC
2013-11-29 00:01:00,53.5,49.1,30.31,North,5,5.0,6.0,85,0.00,,,0.00,WeatherCatV1.21B27,2013-11-29 05:01:00,
2013-11-29 00:02:00,53.5,49.1,30.31,NNE,31,1.0,7.0,85,0.00,,,0.00,WeatherCatV1.21B27,2013-11-29 05:02:00,
2013-11-29 00:03:00,53.5,49.1,30.31,North,5,5.0,7.0,85,0.00,,,0.00,WeatherCatV1.21B27,2013-11-29 05:03:00,
2013-11-29 00:08:00,53.4,49.0,30.31,NW,309,7.0,12.0,85,0.00,,,0.00,WeatherCatV1.21B27,2013-11-29 05:08:00,
2013-11-29 00:13:00,53.3,48.9,30.31,North,355,4.0,8.0,85,0.00,,,0.00,WeatherCatV1.21B27,2013-11-29 05:13:00,
2013-11-29 00:18:00,53.3,48.9,30.31,WNW,302,6.0,6.0,85,0.00,,,0.00,WeatherCatV1.21B27,2013-11-29 05:18:00,
2013-11-29 00:23:00,53.2,48.8,30.31,NNE,26,2.0,6.0,85,0.00,,,0.00,WeatherCatV1.21B27,2013-11-29 05:23:00,
2013-11-29 00:28:00,53.2,48.8,30.31,NNW,345,0.0,6.0,85,0.00,,,0.00,WeatherCatV1.21B27,2013-11-29 05:28:00,
2013-11-29 00:33:00,53.1,48.7,30.31,NNW,346,4.0,5.0,85,0.00,,,0.00,WeatherCatV1.21B27,2013-11-29 05:33:00,
2013-11-29 00:38:00,53.1,48.7,30.30,NNE,29,2.0,5.0,85,0.00,,,0.00,WeatherCatV1.21B27,2013-11-29 05:38:00,
2013-11-29 00:43:00,53.0,48.9,30.30,NNW,333,4.0,5.0,86,0.00,,,0.00,WeatherCatV1.21B27,2013-11-29 05:43:00,
2013-11-29 00:48:00,53.0,48.9,30.30,North,355,2.0,5.0,86,0.00,,,0.00,WeatherCatV1.21B27,2013-11-29 05:48:00,
2013-11-29 00:53:00,52.9,48.8,30.30,NNW,340,2.0,8.0,86,0.00,,,0.00,WeatherCatV1.21B27,2013-11-29 05:53:00,
2013-11-29 00:58:00,52.9,48.8,30.30,NNE,19,2.0,4.0,86,0.00,,,0.00,WeatherCatV1.21B27,2013-11-29 05:58:00,
2013-11-29 01:03:00,52.8,48.7,30.30,East,94,2.0,9.0,86,0.00,,,0.00,WeatherCatV1.21B27,2013-11-29 06:03:00,
2013-11-29 01:08:00,52.8,48.7,30.30,ENE,75,4.0,5.0,86,0.00,,,0.00,WeatherCatV1.21B27,2013-11-29 06:08:00,
2013-11-29 01:13:00,52.7,48.6,30.30,North,0,2.0,3.0,86,0.00,,,0.00,WeatherCatV1.21B27,2013-11-29 06:13:00,
2013-11-29 01:18:00,52.7,48.6,30.30,North,0,2.0,4.0,86,0.00,,,0.00,WeatherCatV1.21B27,2013-11-29 06:18:00,
2013-11-29 01:23:00,52.6,48.5,30.30,NNE,30,6.0,7.0,86,0.00,,,0.00,WeatherCatV1.21B27,2013-11-29 06:23:00,
2013-11-29 01:28:00,52.6,48.8,30.30,NNE,22,0.0,5.0,87,0.00,,,0.00,WeatherCatV1.21B27,2013-11-29 06:28:00,
2013-11-29 01:33:00,52.5,48.7,30.29,NNW,340,1.0,5.0,87,0.00,,,0.00,WeatherCatV1.21B27,2013-11-29 06:33:00,
2013-11-29 01:38:00,52.4,48.6,30.29,NNE,14,1.0,7.0,87,0.00,,,0.00,WeatherCatV1.21B27,2013-11-29 06:38:00,
2013-11-29 01:43:00,52.4,48.6,30.29,NNE,23,2.0,8.0,87,0.00,,,0.00,WeatherCatV1.21B27,2013-11-29 06:43:00,
2013-11-29 01:48:00,52.3,48.5,30.29,NNW,347,4.0,4.0,87,0.00,,,0.00,WeatherCatV1.21B27,2013-11-29 06:48:00,
2013-11-29 01:53:00,52.3,48.5,30.29,North,355,0.0,7.0,87,0.00,,,0.00,WeatherCatV1.21B27,2013-11-29 06:53:00,
2013-11-29 01:58:00,52.2,48.5,30.29,North,355,5.0,6.0,87,0.00,,,0.00,WeatherCatV1.21B27,2013-11-29 06:58:00,
2013-11-29 02:03:00,52.2,48.5,30.29,NNW,330,2.0,7.0,87,0.00,,,0.00,WeatherCatV1.21B27,2013-11-29 07:03:00,
2013-11-29 02:08:00,52.1,48.7,30.29,NNE,27,0.0,7.0,88,0.00,,,0.00,WeatherCatV1.21B27,2013-11-29 07:08:00,
2013-11-29 02:13:00,52.0,48.2,30.28,NNW,347,1.0,6.0,87,0.00,,,0.00,WeatherCatV1.21B27,2013-11-29 07:13:00,
2013-11-29 02:18:00,52.0,48.2,30.28,NE,40,0.0,6.0,87,0.00,,,0.00,WeatherCatV1.21B27,2013-11-29 07:18:00,
2013-11-29 02:23:00,51.9,48.5,30.28,North,5,4.0,7.0,88,0.00,,,0.00,WeatherCatV1.21B27,2013-11-29 07:23:00,
2013-11-29 02:28:00,51.9,48.5,30.28,NW,306,4.0,6.0,88,0.00,,,0.00,WeatherCatV1.21B27,2013-11-29 07:28:00,
2013-11-29 02:33:00,51.9,48.5,30.28,North,355,1.0,6.0,88,0.00,,,0.00,WeatherCatV1.21B27,2013-11-29 07:33:00,
2013-11-29 02:38:00,51.8,48.4,30.29,NNE,19,2.0,6.0,88,0.00,,,0.00,WeatherCatV1.21B27,2013-11-29 07:38:00,
2013-11-29 02:43:00,51.8,48.4,30.28,North,355,4.0,4.0,88,0.00,,,0.00,WeatherCatV1.21B27,2013-11-29 07:43:00,
2013-11-29 02:48:00,51.8,48.4,30.29,NNW,337,0.0,5.0,88,0.00,,,0.00,WeatherCatV1.21B27,2013-11-29 07:48:00,
2013-11-29 02:53:00,51.8,48.4,30.28,NNE,15,0.0,6.0,88,0.00,,,0.00,WeatherCatV1.21B27,2013-11-29 07:53:00,
2013-11-29 02:58:00,51.8,48.4,30.28,North,355,2.0,9.0,88,0.00,,,0.00,WeatherCatV1.21B27,2013-11-29 07:58:00,
2013-11-29 03:03:00,51.8,48.4,30.28,NNW,348,4.0,5.0,88,0.00,,,0.00,WeatherCatV1.21B27,2013-11-29 08:03:00,
2013-11-29 03:08:00,51.8,48.4,30.28,North,0,2.0,6.0,88,0.00,,,0.00,WeatherCatV1.21B27,2013-11-29 08:08:00,
2013-11-29 03:13:00,51.8,48.4,30.28,ESE,115,4.0,7.0,88,0.00,,,0.00,WeatherCatV1.21B27,2013-11-29 08:13:00,
2013-11-29 03:18:00,51.8,48.4,30.28,NNE,19,4.0,6.0,88,0.00,,,0.00,WeatherCatV1.21B27,2013-11-29 08:18:00,
2013-11-29 03:23:00,51.8,48.4,30.28,NNW,336,1.0,3.0,88,0.00,,,0.00,WeatherCatV1.21B27,2013-11-29 08:23:00,
2013-11-29 03:28:00,51.8,48.4,30.28,North,355,1.0,6.0,88,0.00,,,0.00,WeatherCatV1.21B27,2013-11-29 08:28:00,
2013-11-29 03:33:00,51.7,48.3,30.28,ENE,62,4.0,5.0,88,0.00,,,0.00,WeatherCatV1.21B27,2013-11-29 08:33:00,
2013-11-29 03:38:00,51.7,48.3,30.29,NW,324,0.0,6.0,88,0.00,,,0.00,WeatherCatV1.21B27,2013-11-29 08:38:00,
2013-11-29 03:43:00,51.7,48.3,30.28,North,0,0.0,6.0,88,0.00,,,0.00,WeatherCatV1.21B27,2013-11-29 08:43:00,
2013-11-29 03:48:00,51.7,48.6,30.29,NNW,328,3.0,8.0,89,0.00,,,0.00,WeatherCatV1.21B27,2013-11-29 08:48:00,
2013-11-29 03:53:00,51.7,48.6,30.29,NNW,337,3.0,5.0,89,0.00,,,0.00,WeatherCatV1.21B27,2013-11-29 08:53:00,
2013-11-29 03:58:00,51.6,48.5,30.28,North,0,2.0,9.0,89,0.00,,,0.00,WeatherCatV1.21B27,2013-11-29 08:58:00,
2013-11-29 04:03:00,51.6,48.5,30.28,SW,229,1.0,8.0,89,0.00,,,0.00,WeatherCatV1.21B27,2013-11-29 09:03:00,
2013-11-29 04:08:00,51.6,48.5,30.28,North,351,4.0,5.0,89,0.00,,,0.00,WeatherCatV1.21B27,2013-11-29 09:08:00,
2013-11-29 04:13:00,51.6,48.5,30.28,NNW,335,0.0,6.0,89,0.00,,,0.00,WeatherCatV1.21B27,2013-11-29 09:13:00,
2013-11-29 04:18:00,51.6,48.5,30.28,NNW,342,1.0,2.0,89,0.00,,,0.00,WeatherCatV1.21B27,2013-11-29 09:18:00,
2013-11-29 04:23:00,51.7,48.6,30.28,NW,321,4.0,6.0,89,0.00,,,0.00,WeatherCatV1.21B27,2013-11-29 09:23:00,
2013-11-29 04:28:00,51.7,48.6,30.27,NE,52,1.0,3.0,89,0.00,,,0.00,WeatherCatV1.21B27,2013-11-29 09:28:00,
2013-11-29 04:33:00,51.7,48.6,30.28,NE,49,2.0,4.0,89,0.00,,,0.00,WeatherCatV1.21B27,2013-11-29 09:33:00,
2013-11-29 04:38:00,51.8,48.7,30.28,North,11,0.0,5.0,89,0.00,,,0.00,WeatherCatV1.21B27,2013-11-29 09:38:00,
2013-11-29 04:43:00,51.8,48.7,30.28,NW,312,3.0,5.0,89,0.00,,,0.00,WeatherCatV1.21B27,2013-11-29 09:43:00,
2013-11-29 04:48:00,51.8,48.7,30.28,NNE,13,2.0,5.0,89,0.00,,,0.00,WeatherCatV1.21B27,2013-11-29 09:48:00,
2013-11-29 04:53:00,51.8,48.7,30.28,NNW,339,2.0,9.0,89,0.00,,,0.00,WeatherCatV1.21B27,2013-11-29 09:53:00,
2013-11-29 04:58:00,51.9,48.8,30.29,NNW,338,1.0,5.0,89,0.00,,,0.00,WeatherCatV1.21B27,2013-11-29 09:58:00,
2013-11-29 05:03:00,51.9,48.8,30.29,NNW,347,0.0,2.0,89,0.00,,,0.00,WeatherCatV1.21B27,2013-11-29 10:03:00,
2013-11-29 05:08:00,51.8,48.7,30.29,North,351,2.0,5.0,89,0.00,,,0.00,WeatherCatV1.21B27,2013-11-29 10:08:00,
2013-11-29 05:13:00,51.8,48.7,30.29,North,350,1.0,5.0,89,0.00,,,0.00,WeatherCatV1.21B27,2013-11-29 10:13:00,
2013-11-29 05:18:00,51.8,48.7,30.29,North,5,1.0,6.0,89,0.00,,,0.00,WeatherCatV1.21B27,2013-11-29 10:18:00,
2013-11-29 05:23:00,51.7,48.6,30.29,NE,37,0.0,6.0,89,0.00,,,0.00,WeatherCatV1.21B27,2013-11-29 10:23:00,
2013-11-29 05:28:00,51.7,48.6,30.29,North,5,1.0,5.0,89,0.00,,,0.00,WeatherCatV1.21B27,2013-11-29 10:28:00,
2013-11-29 05:33:00,51.7,48.6,30.29,NNW,337,0.0,2.0,89,0.00,,,0.00,WeatherCatV1.21B27,2013-11-29 10:33:00,
2013-11-29 05:38:00,51.7,48.6,30.29,NNE,12,1.0,2.0,89,0.00,,,0.00,WeatherCatV1.21B27,2013-11-29 10:38:00,
2013-11-29 05:43:00,51.7,48.9,30.29,NNE,22,4.0,4.0,90,0.00,,,0.00,WeatherCatV1.21B27,2013-11-29 10:43:00,
2013-11-29 05:48:00,51.7,48.9,30.29,NNE,22,4.0,7.0,90,0.00,,,0.00,WeatherCatV1.21B27,2013-11-29 10:48:00,
2013-11-29 05:53:00,51.7,48.6,30.29,ENE,61,0.0,5.0,89,0.00,,,0.00,WeatherCatV1.21B27,2013-11-29 10:53:00,
2013-11-29 05:58:00,51.7,48.6,30.29,NE,34,0.0,2.0,89,0.00,,,0.00,WeatherCatV1.21B27,2013-11-29 10:58:00,
2013-11-29 06:03:00,51.7,48.9,30.29,North,0,2.0,2.0,90,0.00,,,0.00,WeatherCatV1.21B27,2013-11-29 11:03:00,
2013-11-29 06:08:00,51.7,48.9,30.29,North,5,0.0,6.0,90,0.00,,,0.00,WeatherCatV1.21B27,2013-11-29 11:08:00,
2013-11-29 06:13:00,51.8,49.0,30.29,North,0,0.0,4.0,90,0.00,,,0.00,WeatherCatV1.21B27,2013-11-29 11:13:00,
2013-11-29 06:18:00,51.8,49.0,30.29,NNW,333,0.0,1.0,90,0.00,,,0.00,WeatherCatV1.21B27,2013-11-29 11:18:00,
2013-11-29 06:23:00,51.8,49.0,30.30,NNW,339,2.0,5.0,90,0.00,,,0.00,WeatherCatV1.21B27,2013-11-29 11:23:00,
2013-11-29 06:28:00,51.8,49.0,30.30,North,5,0.0,2.0,90,0.00,,,0.00,WeatherCatV1.21B27,2013-11-29 11:28:00,
2013-11-29 06:33:00,51.8,49.0,30.30,North,0,0.0,4.0,90,0.00,,,0.00,WeatherCatV1.21B27,2013-11-29 11:33:00,
2013-11-29 06:38:00,51.8,49.0,30.30,North,11,0.0,4.0,90,0.00,,,0.00,WeatherCatV1.21B27,2013-11-29 11:38:00,
2013-11-29 06:43:00,51.8,49.0,30.30,NNW,331,0.0,6.0,90,0.00,,,0.00,WeatherCatV1.21B27,2013-11-29 11:43:00,
2013-11-29 06:48:00,51.8,49.0,30.31,North,355,1.0,4.0,90,0.00,,,0.00,WeatherCatV1.21B27,2013-11-29 11:48:00,
2013-11-29 06:53:00,51.9,49.1,30.31,NNW,348,4.0,7.0,90,0.00,,,0.00,WeatherCatV1.21B27,2013-11-29 11:53:00,
2013-11-29 06:58:00,51.9,49.1,30.31,NNE,22,4.0,7.0,90,0.00,,,0.00,WeatherCatV1.21B27,2013-11-29 11:58:00,
2013-11-29 07:03:00,52.0,49.2,30.31,NNW,336,1.0,5.0,90,0.00,,,0.00,WeatherCatV1.21B27,2013-11-29 12:03:00,
2013-11-29 07:08:00,52.1,49.3,30.31,NNW,328,0.0,6.0,90,0.00,,,0.00,WeatherCatV1.21B27,2013-11-29 12:08:00,
2013-11-29 07:13:00,52.2,49.3,30.31,NNW,335,1.0,6.0,90,0.00,,,0.00,WeatherCatV1.21B27,2013-11-29 12:13:00,
2013-11-29 07:18:00,52.2,49.3,30.32,NNE,13,1.0,5.0,90,0.00,,,0.00,WeatherCatV1.21B27,2013-11-29 12:18:00,
2013-11-29 07:23:00,52.3,49.5,30.32,North,0,0.0,2.0,90,0.00,,,0.00,WeatherCatV1.21B27,2013-11-29 12:23:00,
2013-11-29 07:28:00,52.4,49.5,30.32,North,5,0.0,2.0,90,0.00,,,0.00,WeatherCatV1.21B27,2013-11-29 12:28:00,
2013-11-29 07:33:00,52.4,49.5,30.32,NNW,341,1.0,5.0,90,0.00,,,0.00,WeatherCatV1.21B27,2013-11-29 12:33:00,
2013-11-29 07:38:00,52.6,49.8,30.32,North,355,0.0,2.0,90,0.00,,,0.00,WeatherCatV1.21B27,2013-11-29 12:38:00,
2013-11-29 07:43:00,52.7,49.5,30.32,NW,315,0.0,2.0,89,0.00,,,0.00,WeatherCatV1.21B27,2013-11-29 12:43:00,
2013-11-29 07:48:00,53.0,50.1,30.32,NNE,12,2.0,2.0,90,0.00,,,0.00,WeatherCatV1.21B27,2013-11-29 12:48:00,
2013-11-29 07:53:00,53.3,50.1,30.32,NNW,340,2.0,7.0,89,0.00,,,0.00,WeatherCatV1.21B27,2013-11-29 12:53:00,
2013-11-29 07:58:00,53.6,50.4,30.33,North,349,0.0,4.0,89,0.00,,,0.00,WeatherCatV1.21B27,2013-11-29 12:58:00,
2013-11-29 08:03:00,53.9,50.7,30.33,North,350,2.0,8.0,89,0.00,,,0.00,WeatherCatV1.21B27,2013-11-29 13:03:00,
2013-11-29 08:08:00,54.2,50.7,30.33,NE,46,4.0,5.0,88,0.00,,,0.00,WeatherCatV1.21B27,2013-11-29 13:08:00,
2013-11-29 08:13:00,54.6,51.1,30.33,NNE,15,2.0,3.0,88,0.00,,,0.00,WeatherCatV1.21B27,2013-11-29 13:13:00,
2013-11-29 08:18:00,55.0,51.2,30.33,NNE,24,4.0,7.0,87,0.00,,,0.00,WeatherCatV1.21B27,2013-11-29 13:18:00,
2013-11-29 08:23:00,55.5,51.7,30.33,NNW,336,4.0,6.0,87,0.00,,,0.00,WeatherCatV1.21B27,2013-11-29 13:23:00,
2013-11-29 08:28:00,56.0,51.9,30.33,NE,44,2.0,6.0,86,0.00,,,0.00,WeatherCatV1.21B27,2013-11-29 13:28:00,
2013-11-29 08:33:00,56.6,52.1,30.33,North,5,7.0,7.0,85,0.00,,,0.00,WeatherCatV1.21B27,2013-11-29 13:33:00,
2013-11-29 08:38:00,57.2,52.7,30.33,ENE,77,3.0,5.0,85,0.00,,,0.00,WeatherCatV1.21B27,2013-11-29 13:38:00,
2013-11-29 08:43:00,57.8,53.0,30.33,NNW,346,2.0,6.0,84,0.00,,,0.00,WeatherCatV1.21B27,2013-11-29 13:43:00,
2013-11-29 08:49:00,58.4,53.2,30.33,East,84,1.0,7.0,83,0.00,,,0.00,WeatherCatV1.21B27,2013-11-29 13:49:00,
2013-11-29 08:54:00,58.8,53.7,30.33,NNE,23,6.0,6.0,83,0.00,,,0.00,WeatherCatV1.21B27,2013-11-29 13:54:00,
2013-11-29 08:59:00,59.2,53.7,30.33,NNE,12,5.0,8.0,82,0.00,,,0.00,WeatherCatV1.21B27,2013-11-29 13:59:00,
2013-11-29 09:04:00,59.6,54.1,30.33,North,5,1.0,7.0,82,0.00,,,0.00,WeatherCatV1.21B27,2013-11-29 14:04:00,
2013-11-29 09:09:00,60.1,54.2,30.33,North,355,3.0,7.0,81,0.00,,,0.00,WeatherCatV1.21B27,2013-11-29 14:09:00,
2013-11-29 09:14:00,60.7,54.5,30.33,North,11,4.0,9.0,80,0.00,,,0.00,WeatherCatV1.21B27,2013-11-29 14:14:00,
2013-11-29 09:19:00,61.3,55.1,30.33,North,11,6.0,6.0,80,0.00,,,0.00,WeatherCatV1.21B27,2013-11-29 14:19:00,
2013-11-29 09:24:00,62.0,55.4,30.34,NNW,348,1.0,9.0,79,0.00,,,0.00,WeatherCatV1.21B27,2013-11-29 14:24:00,
2013-11-29 09:29:00,62.6,55.6,30.33,NE,49,5.0,8.0,78,0.00,,,0.00,WeatherCatV1.21B27,2013-11-29 14:29:00,
2013-11-29 09:34:00,63.1,55.8,30.34,NNE,12,0.0,4.0,77,0.00,,,0.00,WeatherCatV1.21B27,2013-11-29 14:34:00,
2013-11-29 09:39:00,63.8,56.4,30.34,North,350,0.0,10.0,77,0.00,,,0.00,WeatherCatV1.21B27,2013-11-29 14:39:00,
2013-11-29 09:44:00,64.3,55.8,30.33,East,100,2.0,11.0,74,0.00,,,0.00,WeatherCatV1.21B27,2013-11-29 14:44:00,
2013-11-29 09:49:00,64.7,55.8,30.33,ENE,61,1.0,11.0,73,0.00,,,0.00,WeatherCatV1.21B27,2013-11-29 14:49:00,
2013-11-29 09:54:00,64.9,56.0,30.33,NE,55,0.0,5.0,73,0.00,,,0.00,WeatherCatV1.21B27,2013-11-29 14:54:00,
2013-11-29 09:59:00,65.2,56.3,30.33,NE,41,1.0,7.0,73,0.00,,,0.00,WeatherCatV1.21B27,2013-11-29 14:59:00,
2013-11-29 10:04:00,65.4,56.1,30.34,North,351,8.0,11.0,72,0.00,,,0.00,WeatherCatV1.21B27,2013-11-29 15:04:00,
2013-11-29 10:09:00,65.5,56.2,30.34,ENE,78,6.0,6.0,72,0.00,,,0.00,WeatherCatV1.21B27,2013-11-29 15:09:00,
2013-11-29 10:14:00,65.7,56.4,30.33,ENE,61,2.0,8.0,72,0.00,,,0.00,WeatherCatV1.21B27,2013-11-29 15:14:00,
2013-11-29 10:19:00,65.8,56.1,30.33,NNW,344,9.0,9.0,71,0.00,,,0.00,WeatherCatV1.21B27,2013-11-29 15:19:00,
2013-11-29 10:24:00,66.1,56.4,30.33,ENE,66,0.0,5.0,71,0.00,,,0.00,WeatherCatV1.21B27,2013-11-29 15:24:00,
2013-11-29 10:29:00,66.5,56.4,30.34,NNW,348,3.0,10.0,70,0.00,,,0.00,WeatherCatV1.21B27,2013-11-29 15:29:00,
2013-11-29 10:34:00,66.9,56.8,30.33,NE,51,0.0,10.0,70,0.00,,,0.00,WeatherCatV1.21B27,2013-11-29 15:34:00,
2013-11-29 10:39:00,67.2,57.1,30.33,North,0,5.0,8.0,70,0.00,,,0.00,WeatherCatV1.21B27,2013-11-29 15:39:00,
2013-11-29 10:44:00,67.8,58.0,30.33,NNW,341,7.0,8.0,71,0.00,,,0.00,WeatherCatV1.21B27,2013-11-29 15:44:00,
2013-11-29 10:49:00,68.4,57.0,30.33,East,83,5.0,7.0,67,0.00,,,0.00,WeatherCatV1.21B27,2013-11-29 15:49:00,
2013-11-29 10:54:00,68.6,56.8,30.33,East,84,2.0,12.0,66,0.00,,,0.00,WeatherCatV1.21B27,2013-11-29 15:54:00,
2013-11-29 10:59:00,68.5,56.7,30.33,ESE,109,5.0,9.0,66,0.00,,,0.00,WeatherCatV1.21B27,2013-11-29 15:59:00,
2013-11-29 11:04:00,68.4,57.0,30.33,NW,323,5.0,6.0,67,0.00,,,0.00,WeatherCatV1.21B27,2013-11-29 16:04:00,
2013-11-29 11:09:00,68.4,57.4,30.33,NE,52,1.0,2.0,68,0.00,,,0.00,WeatherCatV1.21B27,2013-11-29 16:09:00,
2013-11-29 11:14:00,68.5,56.7,30.33,ENE,73,2.0,8.0,66,0.00,,,0.00,WeatherCatV1.21B27,2013-11-29 16:14:00,
2013-11-29 11:19:00,68.5,57.5,30.32,North,351,6.0,7.0,68,0.00,,,0.00,WeatherCatV1.21B27,2013-11-29 16:19:00,
2013-11-29 11:24:00,69.0,57.6,30.32,NNE,21,6.0,7.0,67,0.00,,,0.00,WeatherCatV1.21B27,2013-11-29 16:24:00,
2013-11-29 11:29:00,69.4,57.5,30.32,NE,34,2.0,5.0,66,0.00,,,0.00,WeatherCatV1.21B27,2013-11-29 16:29:00,
2013-11-29 11:34:00,69.6,56.9,30.32,ENE,61,5.0,11.0,64,0.00,,,0.00,WeatherCatV1.21B27,2013-11-29 16:34:00,
2013-11-29 11:39:00,69.6,56.9,30.32,NNE,24,2.0,11.0,64,0.00,,,0.00,WeatherCatV1.21B27,2013-11-29 16:39:00,
2013-11-29 11:44:00,69.5,57.2,30.32,ENE,66,1.0,5.0,65,0.00,,,0.00,WeatherCatV1.21B27,2013-11-29 16:44:00,
2013-11-29 11:49:00,69.7,57.0,30.31,NNW,348,4.0,5.0,64,0.00,,,0.00,WeatherCatV1.21B27,2013-11-29 16:49:00,
2013-11-29 11:54:00,69.9,57.6,30.31,North,0,1.0,11.0,65,0.00,,,0.00,WeatherCatV1.21B27,2013-11-29 16:54:00,
2013-11-29 11:59:00,70.0,56.4,30.31,NE,36,7.0,7.0,62,0.00,,,0.00,WeatherCatV1.21B27,2013-11-29 16:59:00,
2013-11-29 12:04:00,70.0,57.2,30.31,NE,56,2.0,8.0,64,0.00,,,0.00,WeatherCatV1.21B27,2013-11-29 17:04:00,
2013-11-29 12:09:00,70.0,56.8,30.30,North,5,1.0,9.0,63,0.00,,,0.00,WeatherCatV1.21B27,2013-11-29 17:09:00,
2013-11-29 12:14:00,69.8,56.2,30.30,NNE,27,8.0,9.0,62,0.00,,,0.00,WeatherCatV1.21B27,2013-11-29 17:14:00,
2013-11-29 12:19:00,69.7,56.5,30.29,NNW,327,9.0,12.0,63,0.00,,,0.00,WeatherCatV1.21B27,2013-11-29 17:19:00,
2013-11-29 12:24:00,69.7,57.4,30.30,NE,44,4.0,6.0,65,0.00,,,0.00,WeatherCatV1.21B27,2013-11-29 17:24:00,
2013-11-29 12:29:00,70.0,56.8,30.30,North,355,5.0,9.0,63,0.00,,,0.00,WeatherCatV1.21B27,2013-11-29 17:29:00,
2013-11-29 12:34:00,70.0,56.8,30.29,North,0,2.0,11.0,63,0.00,,,0.00,WeatherCatV1.21B27,2013-11-29 17:34:00,
2013-11-29 12:39:00,69.9,56.7,30.29,NNW,339,5.0,10.0,63,0.00,,,0.00,WeatherCatV1.21B27,2013-11-29 17:39:00,
2013-11-29 12:44:00,69.9,57.2,30.29,NNW,339,4.0,7.0,64,0.00,,,0.00,WeatherCatV1.21B27,2013-11-29 17:44:00,
2013-11-29 12:49:00,69.9,57.2,30.28,NE,34,5.0,8.0,64,0.00,,,0.00,WeatherCatV1.21B27,2013-11-29 17:49:00,
2013-11-29 12:54:00,69.8,57.1,30.28,NNW,340,1.0,6.0,64,0.00,,,0.00,WeatherCatV1.21B27,2013-11-29 17:54:00,
2013-11-29 12:59:00,69.7,57.0,30.28,NNE,12,5.0,7.0,64,0.00,,,0.00,WeatherCatV1.21B27,2013-11-29 17:59:00,
2013-11-29 13:04:00,69.6,57.3,30.28,NW,323,1.0,7.0,65,0.00,,,0.00,WeatherCatV1.21B27,2013-11-29 18:04:00,
2013-11-29 13:09:00,69.7,57.4,30.28,ENE,67,5.0,10.0,65,0.00,,,0.00,WeatherCatV1.21B27,2013-11-29 18:09:00,
2013-11-29 13:14:00,69.8,57.1,30.27,NNW,338,6.0,6.0,64,0.00,,,0.00,WeatherCatV1.21B27,2013-11-29 18:14:00,
2013-11-29 13:19:00,69.7,57.0,30.27,NNE,13,0.0,5.0,64,0.00,,,0.00,WeatherCatV1.21B27,2013-11-29 18:19:00,
2013-11-29 13:24:00,69.7,57.8,30.27,NNE,30,1.0,7.0,66,0.00,,,0.00,WeatherCatV1.21B27,2013-11-29 18:24:00,
2013-11-29 13:29:00,69.9,57.2,30.27,North,355,5.0,6.0,64,0.00,,,0.00,WeatherCatV1.21B27,2013-11-29 18:29:00,
2013-11-29 13:34:00,69.9,57.2,30.27,North,5,4.0,9.0,64,0.00,,,0.00,WeatherCatV1.21B27,2013-11-29 18:34:00,
2013-11-29 13:39:00,69.9,57.2,30.26,NE,34,2.0,4.0,64,0.00,,,0.00,WeatherCatV1.21B27,2013-11-29 18:39:00,
2013-11-29 13:44:00,70.0,56.8,30.26,North,5,7.0,8.0,63,0.00,,,0.00,WeatherCatV1.21B27,2013-11-29 18:44:00,
2013-11-29 13:49:00,69.9,56.3,30.26,NNW,344,4.0,9.0,62,0.00,,,0.00,WeatherCatV1.21B27,2013-11-29 18:49:00,
2013-11-29 13:54:00,69.8,56.6,30.26,ENE,69,2.0,8.0,63,0.00,,,0.00,WeatherCatV1.21B27,2013-11-29 18:54:00,
2013-11-29 13:59:00,69.8,57.1,30.26,North,355,7.0,10.0,64,0.00,,,0.00,WeatherCatV1.21B27,2013-11-29 18:59:00,
2013-11-29 14:04:00,69.8,56.6,30.26,NE,35,2.0,10.0,63,0.00,,,0.00,WeatherCatV1.21B27,2013-11-29 19:04:00,
2013-11-29 14:09:00,69.9,57.2,30.26,North,355,5.0,7.0,64,0.00,,,0.00,WeatherCatV1.21B27,2013-11-29 19:09:00,
2013-11-29 14:14:00,70.0,56.8,30.25,North,9,2.0,5.0,63,0.00,,,0.00,WeatherCatV1.21B27,2013-11-29 19:14:00,
2013-11-29 14:19:00,70.1,57.3,30.25,NE,34,4.0,6.0,64,0.00,,,0.00,WeatherCatV1.21B27,2013-11-29 19:19:00,
2013-11-29 14:24:00,70.2,57.0,30.25,NNW,338,6.0,6.0,63,0.00,,,0.00,WeatherCatV1.21B27,2013-11-29 19:24:00,
2013-11-29 14:29:00,70.3,57.5,30.25,NNE,13,1.0,2.0,64,0.00,,,0.00,WeatherCatV1.21B27,2013-11-29 19:29:00,
2013-11-29 14:34:00,70.4,58.1,30.25,NNE,13,1.0,2.0,65,0.00,,,0.00,WeatherCatV1.21B27,2013-11-29 19:34:00,
2013-11-29 14:39:00,70.5,57.3,30.25,North,5,6.0,6.0,63,0.00,,,0.00,WeatherCatV1.21B27,2013-11-29 19:39:00,
2013-11-29 14:44:00,70.7,57.5,30.25,NNW,348,1.0,7.0,63,0.00,,,0.00,WeatherCatV1.21B27,2013-11-29 19:44:00,
2013-11-29 14:49:00,70.7,57.0,30.25,NNE,20,1.0,9.0,62,0.00,,,0.00,WeatherCatV1.21B27,2013-11-29 19:49:00,
2013-11-29 14:54:00,70.7,57.0,30.25,NNE,28,1.0,6.0,62,0.00,,,0.00,WeatherCatV1.21B27,2013-11-29 19:54:00,
2013-11-29 14:59:00,70.7,57.0,30.25,WNW,295,4.0,9.0,62,0.00,,,0.00,WeatherCatV1.21B27,2013-11-29 19:59:00,
2013-11-29 15:04:00,70.6,56.5,30.25,NNE,23,1.0,14.0,61,0.00,,,0.00,WeatherCatV1.21B27,2013-11-29 20:04:00,
2013-11-29 15:09:00,70.7,56.6,30.25,SE,127,1.0,10.0,61,0.00,,,0.00,WeatherCatV1.21B27,2013-11-29 20:09:00,
2013-11-29 15:14:00,71.0,56.4,30.25,North,355,3.0,6.0,60,0.00,,,0.00,WeatherCatV1.21B27,2013-11-29 20:14:00,
2013-11-29 15:19:00,71.3,56.7,30.24,NNE,23,3.0,7.0,60,0.00,,,0.00,WeatherCatV1.21B27,2013-11-29 20:19:00,
2013-11-29 15:24:00,71.6,57.4,30.24,NE,35,4.0,5.0,61,0.00,,,0.00,WeatherCatV1.21B27,2013-11-29 20:24:00,
2013-11-29 15:29:00,71.7,56.6,30.24,SW,229,4.0,7.0,59,0.00,,,0.00,WeatherCatV1.21B27,2013-11-29 20:29:00,
2013-11-29 15:34:00,71.9,56.8,30.24,North,349,2.0,11.0,59,0.00,,,0.00,WeatherCatV1.21B27,2013-11-29 20:34:00,
2013-11-29 15:39:00,71.9,56.3,30.25,NNE,13,1.0,9.0,58,0.00,,,0.00,WeatherCatV1.21B27,2013-11-29 20:39:00,
2013-11-29 15:44:00,71.6,56.5,30.25,NNE,12,3.0,7.0,59,0.00,,,0.00,WeatherCatV1.21B27,2013-11-29 20:44:00,
2013-11-29 15:49:00,71.5,56.4,30.25,NNW,346,0.0,8.0,59,0.00,,,0.00,WeatherCatV1.21B27,2013-11-29 20:49:00,
2013-11-29 15:54:00,71.6,57.0,30.25,NNE,24,6.0,7.0,60,0.00,,,0.00,WeatherCatV1.21B27,2013-11-29 20:54:00,
2013-11-29 15:59:00,71.6,56.0,30.25,East,93,5.0,8.0,58,0.00,,,0.00,WeatherCatV1.21B27,2013-11-29 20:59:00,
2013-11-29 16:04:00,71.6,56.5,30.25,NNW,344,1.0,4.0,59,0.00,,,0.00,WeatherCatV1.21B27,2013-11-29 21:04:00,
2013-11-29 16:09:00,71.3,56.2,30.25,ENE,71,3.0,9.0,59,0.00,,,0.00,WeatherCatV1.21B27,2013-11-29 21:09:00,
2013-11-29 16:14:00,71.0,56.4,30.25,North,11,4.0,7.0,60,0.00,,,0.00,WeatherCatV1.21B27,2013-11-29 21:14:00,
2013-11-29 16:19:00,70.8,57.1,30.25,NW,308,11.0,11.0,62,0.00,,,0.00,WeatherCatV1.21B27,2013-11-29 21:19:00,
2013-11-29 16:24:00,70.6,56.5,30.25,North,11,4.0,8.0,61,0.00,,,0.00,WeatherCatV1.21B27,2013-11-29 21:24:00,
2013-11-29 16:29:00,70.6,56.9,30.25,North,0,6.0,13.0,62,0.00,,,0.00,WeatherCatV1.21B27,2013-11-29 21:29:00,
2013-11-29 16:34:00,70.6,56.9,30.24,NNE,17,1.0,6.0,62,0.00,,,0.00,WeatherCatV1.21B27,2013-11-29 21:34:00,
2013-11-29 16:39:00,70.6,56.9,30.24,NNE,19,4.0,8.0,62,0.00,,,0.00,WeatherCatV1.21B27,2013-11-29 21:39:00,
2013-11-29 16:44:00,70.5,57.3,30.24,WNW,300,5.0,5.0,63,0.00,,,0.00,WeatherCatV1.21B27,2013-11-29 21:44:00,
2013-11-29 16:49:00,70.3,57.1,30.25,North,5,5.0,6.0,63,0.00,,,0.00,WeatherCatV1.21B27,2013-11-29 21:49:00,
2013-11-29 16:54:00,70.3,57.1,30.25,NNW,327,1.0,7.0,63,0.00,,,0.00,WeatherCatV1.21B27,2013-11-29 21:54:00,
2013-11-29 16:59:00,70.1,56.9,30.25,NNE,15,2.0,5.0,63,0.00,,,0.00,WeatherCatV1.21B27,2013-11-29 21:59:00,
2013-11-29 17:04:00,70.0,57.2,30.25,SE,140,0.0,1.0,64,0.00,,,0.00,WeatherCatV1.21B27,2013-11-29 22:04:00,
2013-11-29 17:09:00,69.8,57.5,30.25,NE,40,0.0,2.0,65,0.00,,,0.00,WeatherCatV1.21B27,2013-11-29 22:09:00,
2013-11-29 17:14:00,69.6,57.3,30.25,NNE,13,0.0,2.0,65,0.00,,,0.00,WeatherCatV1.21B27,2013-11-29 22:14:00,
2013-11-29 17:19:00,69.4,57.1,30.25,NNE,14,0.0,4.0,65,0.00,,,0.00,WeatherCatV1.21B27,2013-11-29 22:19:00,
2013-11-29 17:24:00,69.2,57.3,30.25,NE,56,0.0,1.0,66,0.00,,,0.00,WeatherCatV1.21B27,2013-11-29 22:24:00,
2013-11-29 17:29:00,68.9,57.5,30.25,ENE,76,7.0,7.0,67,0.00,,,0.00,WeatherCatV1.21B27,2013-11-29 22:29:00,
2013-11-29 17:34:00,68.8,57.4,30.25,North,11,0.0,5.0,67,0.00,,,0.00,WeatherCatV1.21B27,2013-11-29 22:34:00,
2013-11-29 17:39:00,68.6,57.6,30.25,North,0,0.0,1.0,68,0.00,,,0.00,WeatherCatV1.21B27,2013-11-29 22:39:00,
2013-11-29 17:44:00,68.5,57.5,30.26,NNE,29,2.0,5.0,68,0.00,,,0.00,WeatherCatV1.21B27,2013-11-29 22:44:00,
2013-11-29 17:49:00,68.3,57.7,30.26,NNW,327,4.0,5.0,69,0.00,,,0.00,WeatherCatV1.21B27,2013-11-29 22:49:00,
2013-11-29 17:54:00,68.1,57.9,30.26,NNW,346,0.0,4.0,70,0.00,,,0.00,WeatherCatV1.21B27,2013-11-29 22:54:00,
2013-11-29 17:59:00,67.9,58.1,30.26,WNW,300,0.0,4.0,71,0.00,,,0.00,WeatherCatV1.21B27,2013-11-29 22:59:00,
2013-11-29 18:04:00,67.8,58.0,30.26,North,350,1.0,2.0,71,0.00,,,0.00,WeatherCatV1.21B27,2013-11-29 23:04:00,
2013-11-29 18:09:00,67.6,58.2,30.26,NE,34,4.0,6.0,72,0.00,,,0.00,WeatherCatV1.21B27,2013-11-29 23:09:00,
2013-11-29 18:14:00,67.4,58.0,30.26,North,355,0.0,4.0,72,0.00,,,0.00,WeatherCatV1.21B27,2013-11-29 23:14:00,
2013-11-29 18:19:00,67.2,58.2,30.26,North,0,0.0,1.0,73,0.00,,,0.00,WeatherCatV1.21B27,2013-11-29 23:19:00,
2013-11-29 18:24:00,67.0,58.4,30.26,NNW,344,2.0,6.0,74,0.00,,,0.00,WeatherCatV1.21B27,2013-11-29 23:24:00,
2013-11-29 18:29:00,66.8,58.2,30.26,North,5,4.0,5.0,74,0.00,,,0.00,WeatherCatV1.21B27,2013-11-29 23:29:00,
2013-11-29 18:34:00,66.6,58.0,30.26,North,5,1.0,2.0,74,0.00,,,0.00,WeatherCatV1.21B27,2013-11-29 23:34:00,
2013-11-29 18:39:00,66.4,58.2,30.27,North,11,0.0,6.0,75,0.00,,,0.00,WeatherCatV1.21B27,2013-11-29 23:39:00,
2013-11-29 18:44:00,66.2,58.0,30.27,North,5,3.0,9.0,75,0.00,,,0.00,WeatherCatV1.21B27,2013-11-29 23:44:00,
2013-11-29 18:49:00,66.1,57.9,30.27,NNW,346,5.0,9.0,75,0.00,,,0.00,WeatherCatV1.21B27,2013-11-29 23:49:00,
2013-11-29 18:54:00,66.0,57.8,30.27,North,0,0.0,4.0,75,0.00,,,0.00,WeatherCatV1.21B27,2013-11-29 23:54:00,
2013-11-29 18:59:00,65.8,58.0,30.27,NE,51,0.0,1.0,76,0.00,,,0.00,WeatherCatV1.21B27,2013-11-29 23:59:00,
2013-11-29 19:04:00,65.7,57.9,30.27,North,355,1.0,2.0,76,0.00,,,0.00,WeatherCatV1.21B27,2013-11-30 00:04:00,
2013-11-29 19:09:00,65.5,57.7,30.27,NNE,19,0.0,2.0,76,0.00,,,0.00,WeatherCatV1.21B27,2013-11-30 00:09:00,
2013-11-29 19:14:00,65.4,57.6,30.27,NNE,22,1.0,5.0,76,0.00,,,0.00,WeatherCatV1.21B27,2013-11-30 00:14:00,
2013-11-29 19:19:00,65.2,57.8,30.27,North,351,0.0,4.0,77,0.00,,,0.00,WeatherCatV1.21B27,2013-11-30 00:19:00,
2013-11-29 19:24:00,65.0,57.6,30.27,NNW,341,1.0,4.0,77,0.00,,,0.00,WeatherCatV1.21B27,2013-11-30 00:24:00,
2013-11-29 19:29:00,64.8,57.4,30.27,NNE,17,0.0,2.0,77,0.00,,,0.00,WeatherCatV1.21B27,2013-11-30 00:29:00,
2013-11-29 19:34:00,64.6,57.6,30.28,NNE,12,2.0,4.0,78,0.00,,,0.00,WeatherCatV1.21B27,2013-11-30 00:34:00,
2013-11-29 19:39:00,64.5,57.5,30.28,NNE,13,0.0,1.0,78,0.00,,,0.00,WeatherCatV1.21B27,2013-11-30 00:39:00,
2013-11-29 19:44:00,64.3,57.6,30.28,ENE,61,1.0,5.0,79,0.00,,,0.00,WeatherCatV1.21B27,2013-11-30 00:44:00,
2013-11-29 19:49:00,64.0,57.3,30.28,NE,36,1.0,2.0,79,0.00,,,0.00,WeatherCatV1.21B27,2013-11-30 00:49:00,
2013-11-29 19:54:00,63.9,57.2,30.28,East,80,4.0,7.0,79,0.00,,,0.00,WeatherCatV1.21B27,2013-11-30 00:54:00,
2013-11-29 19:59:00,63.8,57.2,30.28,North,355,0.0,6.0,79,0.00,,,0.00,WeatherCatV1.21B27,2013-11-30 00:59:00,
2013-11-29 20:04:00,63.8,57.2,30.28,NE,36,1.0,4.0,79,0.00,,,0.00,WeatherCatV1.21B27,2013-11-30 01:04:00,
2013-11-29 20:09:00,63.7,57.1,30.28,NE,50,3.0,8.0,79,0.00,,,0.00,WeatherCatV1.21B27,2013-11-30 01:09:00,
2013-11-29 20:14:00,63.7,57.1,30.29,North,355,0.0,7.0,79,0.00,,,0.00,WeatherCatV1.21B27,2013-11-30 01:14:00,
2013-11-29 20:19:00,63.6,57.0,30.29,North,11,1.0,5.0,79,0.00,,,0.00,WeatherCatV1.21B27,2013-11-30 01:19:00,
2013-11-29 20:24:00,63.5,56.9,30.29,ESE,115,0.0,2.0,79,0.00,,,0.00,WeatherCatV1.21B27,2013-11-30 01:24:00,
2013-11-29 20:29:00,63.4,56.8,30.29,North,5,2.0,5.0,79,0.00,,,0.00,WeatherCatV1.21B27,2013-11-30 01:29:00,
2013-11-29 20:34:00,63.2,56.6,30.29,NE,55,0.0,1.0,79,0.00,,,0.00,WeatherCatV1.21B27,2013-11-30 01:34:00,
2013-11-29 20:39:00,63.1,56.5,30.29,North,355,0.0,6.0,79,0.00,,,0.00,WeatherCatV1.21B27,2013-11-30 01:39:00,
2013-11-29 20:44:00,63.0,56.4,30.30,NNE,23,0.0,0.0,79,0.00,,,0.00,WeatherCatV1.21B27,2013-11-30 01:44:00,
2013-11-29 20:49:00,62.8,56.2,30.30,NNE,19,1.0,1.0,79,0.00,,,0.00,WeatherCatV1.21B27,2013-11-30 01:49:00,
2013-11-29 20:54:00,62.6,56.3,30.30,WNW,289,5.0,5.0,80,0.00,,,0.00,WeatherCatV1.21B27,2013-11-30 01:54:00,
2013-11-29 20:59:00,62.4,55.8,30.30,North,9,2.0,4.0,79,0.00,,,0.00,WeatherCatV1.21B27,2013-11-30 01:59:00,
2013-11-29 21:04:00,62.3,55.7,30.30,ENE,65,6.0,7.0,79,0.00,,,0.00,WeatherCatV1.21B27,2013-11-30 02:04:00,
2013-11-29 21:09:00,62.2,55.6,30.30,North,11,4.0,6.0,79,0.00,,,0.00,WeatherCatV1.21B27,2013-11-30 02:09:00,
2013-11-29 21:14:00,62.0,55.4,30.30,NE,47,2.0,5.0,79,0.00,,,0.00,WeatherCatV1.21B27,2013-11-30 02:14:00,
2013-11-29 21:19:00,61.8,55.2,30.30,North,355,1.0,3.0,79,0.00,,,0.00,WeatherCatV1.21B27,2013-11-30 02:19:00,
2013-11-29 21:24:00,61.7,55.5,30.31,NNE,17,1.0,5.0,80,0.00,,,0.00,WeatherCatV1.21B27,2013-11-30 02:24:00,
2013-11-29 21:29:00,61.5,55.3,30.31,NNW,327,0.0,4.0,80,0.00,,,0.00,WeatherCatV1.21B27,2013-11-30 02:29:00,
2013-11-29 21:34:00,61.3,55.1,30.32,NW,317,4.0,7.0,80,0.00,,,0.00,WeatherCatV1.21B27,2013-11-30 02:34:00,
2013-11-29 21:39:00,61.1,54.9,30.32,North,11,2.0,9.0,80,0.00,,,0.00,WeatherCatV1.21B27,2013-11-30 02:39:00,
2013-11-29 21:44:00,60.9,54.7,30.32,North,355,1.0,8.0,80,0.00,,,0.00,WeatherCatV1.21B27,2013-11-30 02:44:00,
2013-11-29 21:49:00,60.8,54.2,30.32,NE,42,4.0,9.0,79,0.00,,,0.00,WeatherCatV1.21B27,2013-11-30 02:49:00,
2013-11-29 21:54:00,60.7,54.1,30.32,North,355,7.0,8.0,79,0.00,,,0.00,WeatherCatV1.21B27,2013-11-30 02:54:00,
2013-11-29 21:59:00,60.5,54.3,30.32,NNW,348,0.0,6.0,80,0.00,,,0.00,WeatherCatV1.21B27,2013-11-30 02:59:00,
2013-11-29 22:04:00,60.4,54.2,30.32,North,9,1.0,5.0,80,0.00,,,0.00,WeatherCatV1.21B27,2013-11-30 03:04:00,
2013-11-29 22:09:00,60.3,54.1,30.32,NNW,348,5.0,7.0,80,0.00,,,0.00,WeatherCatV1.21B27,2013-11-30 03:09:00,
2013-11-29 22:14:00,60.1,53.9,30.31,NNE,24,4.0,7.0,80,0.00,,,0.00,WeatherCatV1.21B27,2013-11-30 03:14:00,
2013-11-29 22:19:00,60.0,53.8,30.32,NNW,340,1.0,4.0,80,0.00,,,0.00,WeatherCatV1.21B27,2013-11-30 03:19:00,
2013-11-29 22:24:00,59.9,53.7,30.32,NNE,32,1.0,6.0,80,0.00,,,0.00,WeatherCatV1.21B27,2013-11-30 03:24:00,
2013-11-29 22:29:00,59.7,53.5,30.32,NNW,348,5.0,6.0,80,0.00,,,0.00,WeatherCatV1.21B27,2013-11-30 03:29:00,
2013-11-29 22:34:00,59.6,53.4,30.32,North,9,1.0,3.0,80,0.00,,,0.00,WeatherCatV1.21B27,2013-11-30 03:34:00,
2013-11-29 22:39:00,59.5,53.3,30.31,NNE,19,0.0,2.0,80,0.00,,,0.00,WeatherCatV1.21B27,2013-11-30 03:39:00,
2013-11-29 22:44:00,59.3,53.1,30.31,NE,51,2.0,4.0,80,0.00,,,0.00,WeatherCatV1.21B27,2013-11-30 03:44:00,
2013-11-29 22:49:00,59.1,52.9,30.31,NNW,346,3.0,5.0,80,0.00,,,0.00,WeatherCatV1.21B27,2013-11-30 03:49:00,
2013-11-29 22:54:00,59.0,52.8,30.31,NNE,14,0.0,5.0,80,0.00,,,0.00,WeatherCatV1.21B27,2013-11-30 03:54:00,
2013-11-29 22:59:00,58.9,52.7,30.31,ENE,62,6.0,9.0,80,0.00,,,0.00,WeatherCatV1.21B27,2013-11-30 03:59:00,
2013-11-29 23:04:00,58.8,52.6,30.31,North,351,2.0,6.0,80,0.00,,,0.00,WeatherCatV1.21B27,2013-11-30 04:04:00,
2013-11-29 23:09:00,58.7,52.5,30.31,NE,51,1.0,5.0,80,0.00,,,0.00,WeatherCatV1.21B27,2013-11-30 04:09:00,
2013-11-29 23:14:00,58.6,52.5,30.30,North,0,0.0,2.0,80,0.00,,,0.00,WeatherCatV1.21B27,2013-11-30 04:14:00,
2013-11-29 23:19:00,58.4,52.2,30.30,NNW,335,1.0,2.0,80,0.00,,,0.00,WeatherCatV1.21B27,2013-11-30 04:19:00,
2013-11-29 23:24:00,58.3,52.2,30.30,NNW,338,2.0,5.0,80,0.00,,,0.00,WeatherCatV1.21B27,2013-11-30 04:24:00,
2013-11-29 23:29:00,58.1,52.0,30.30,North,10,2.0,4.0,80,0.00,,,0.00,WeatherCatV1.21B27,2013-11-30 04:29:00,
2013-11-29 23:34:00,58.0,52.2,30.30,NNE,22,2.0,6.0,81,0.00,,,0.00,WeatherCatV1.21B27,2013-11-30 04:34:00,
2013-11-29 23:39:00,57.7,51.9,30.31,NNE,22,0.0,7.0,81,0.00,,,0.00,WeatherCatV1.21B27,2013-11-30 04:39:00,
2013-11-29 23:44:00,57.6,51.8,30.31,NNW,342,1.0,6.0,81,0.00,,,0.00,WeatherCatV1.21B27,2013-11-30 04:44:00,
2013-11-29 23:49:00,57.5,51.7,30.31,North,355,1.0,4.0,81,0.00,,,0.00,WeatherCatV1.21B27,2013-11-30 04:49:00,
2013-11-29 23:54:00,57.3,51.5,30.30,NW,322,7.0,7.0,81,0.00,,,0.00,WeatherCatV1.21B27,2013-11-30 04:54:00,
2013-11-29 23:59:00,57.3,51.5,30.30,NNW,341,1.0,7.0,81,0.00,,,0.00,WeatherCatV1.21B27,2013-11-30 04:59:00,